Terminal Aerodrome Forecast
Issued by NWS Missoula, MT

Current Version | Previous Version | Text Only | Print | Product List | Glossary On
Versions: 1 2 3 4 5 6 7 8 9 10 11 12 13 14
000
FTUS45 KMSO 231121
TAFBTM
TAF
KBTM 231121Z 2312/2412 VRB04KT P6SM FEW090=

USA.gov is the U.S. government's official web portal to all federal, state and local government web resources and services.